Location: Arrodets-la-Barthe
(43.0306°N, 0.2829°E)
Time: 23:37:00
(UTC+00:00)

Iridium 4 Rocket - Pass Details

Date: 06 June 2022
Orbit: 585 x 902 km, 86.9° (Epoch: 03 July)

Event Time Altitude Azimuth Distance (km) Brightness Sun altitude
Rises 20:47:43 0° 11° (N) 3,180 7.2 -11.1°
Reaches altitude 10° 20:50:23 10° 25° (NNE) 2,309 6.3 -11.4°
Maximum altitude 20:54:35 24° 79° (E) 1,603 4.9 -11.9°
Enters shadow 20:57:39 16° 122° (ESE) 2,065 5.1 -12.3°
